COSMOS 586

Satellite information

Favourite Embed

Satellite Type and Status

PAYLOADIN ORBIT

Key statistics

Satellite COSMOS 586 at a glance.

Uptime

18869

Days in orbit

Revolutions

≈ 13.8

Per day

Orbit

LEO

Low Earth Orbit

Inclination

82.9

Latest

Satellite identification and parameters

Extended collection of information and parameters for COSMOS 586.

Object identification

Identified? True

Debris? False

Object name: COSMOS 586

International designator: 1973-065A

Object number (NORAD): 6828

Object ID (CCSDS): 6828

Country: COMMONWEALTH OF INDEPENDENT STATES (CIS)

Current information (Y/N): Y

RCS size: LARGE

Orbital parameters

Period: 104.702 minutes

Inclination: 82.9389 deg

SMA: 7358.61 km

Apoapsis: 999.854 km

Periapsis: 961.097 km

RAAN: 99.954 deg

Eccentricy: 0.0026334

Argument of periapsis: 237.2854 deg

Mean anomaly: 179.2115 deg

Mean motion: 13.75336732 rev/day

Mean motion (dot): 0.00000052 rev/day2

B* drag term: 0.000038587 1/REarth

Two-line elements (TLE)

Creation date: May 12, 2025, 11:06 p.m.

Reference frame: TEME

Reference center: EARTH

Epoch: May 12, 2025, 9:25 p.m. UTC

TLE line 0: 0 COSMOS 586

TLE line 1: 1 6828U 73065A 25132.89294630 .00000052 00000-0 38587-4 0 9991

TLE line 2: 2 6828 82.9389 99.9540 0026334 237.2854 179.2115 13.75336732592170

Live tracking on map

Real-time ground track for satellite COSMOS 586.

In-orbit conjunctions

A list of the most updated potential collisions computed for object COSMOS 586.

Target Orbit TCA Probability of collision Miss distance Type
FENGYUN 1C DEB SSO 2025-02-05 12:22:03 0.0001195502 95.0 (m) DEBRIS
FENGYUN 1C DEB SSO 2024-10-10 04:57:49 0.0001428396 662.0 (m) DEBRIS
FENGYUN 1C DEB SSO 2024-09-25 03:15:54 0.001775492 45.0 (m) DEBRIS

Associated space launch

The first soviet navigation system called Tsiklon consisted of Zaliv satellites in low earth orbit.

COSMOS 586 was lifted into orbit during the mission ‘Kosmos-3M | Zaliv 14’, on board a Kosmos-3M space rocket.

The launch took place on Sept. 14, 1973, 12:31 a.m. from 132/2.

For more information about the launch, click the button.

Launch to space Kosmos-3M | Zaliv 14
Kosmos-3M | Zaliv 14

Agency: N/A

Status: Launch Successful

Launch date: Sept. 14, 1973, 12:31 a.m. UTC

Rocket: Kosmos-3M

Launch pad: 132/2

Location: Plesetsk Cosmodrome, Russian Federation

...

Latest news about this satellite

There are no fresh news available about this satellite. Check back as we update our databases every day.


Newsletter sign-up

Weekly statistics, charts and insights to help you stay on top of the space industry.